This is the latest recevied weather packets stored in our database for station/object KC2GYU. If no packets are shown the sender has not sent any weather packets the latest 10 day(s).
| Time | Temp. | Humidity | Pressure | Rain* | Wind** | Luminosity | Snow |
|---|---|---|---|---|---|---|---|
| 1778103827 | 19.44° C | 87% | 1009.2 hPa | 0 mm | - | 55 W/m² | - |
| 1778103525 | 19.44° C | 87% | 1009.1 hPa | 0 mm | - | 73 W/m² | - |
| 1778103222 | 19.44° C | 87% | 1008.9 hPa | 0 mm | - | 105 W/m² | - |
| 1778102919 | 19.44° C | 88% | 1009.1 hPa | 0 mm | - | 126 W/m² | - |
| 1778102615 | 19.44° C | 87% | 1008.6 hPa | 0 mm | - | 122 W/m² | - |
| 1778102310 | 19.44° C | 87% | 1008.8 hPa | 0 mm | - | 119 W/m² | - |
| 1778102006 | 19.44° C | 87% | 1008.5 hPa | 0 mm | - | 99 W/m² | - |
| 1778101704 | 20° C | 86% | 1008.5 hPa | 0 mm | - | 143 W/m² | - |
| 1778101401 | 20° C | 85% | 1008.7 hPa | 0 mm | - | 198 W/m² | - |
| 1778101098 | 20° C | 85% | 1008.4 hPa | 0 mm | - | 371 W/m² | - |
| 1778100794 | 20° C | 85% | 1008.7 hPa | 0 mm | - | 300 W/m² | - |
| 1778100490 | 20° C | 86% | 1008.6 hPa | 0 mm | - | 189 W/m² | - |
| 1778100188 | 20° C | 85% | 1008.4 hPa | 0 mm | - | 212 W/m² | - |
| 1778099886 | 19.44° C | 86% | 1008.4 hPa | 0 mm | - | 257 W/m² | - |
| 1778099583 | 19.44° C | 86% | 1008.5 hPa | 0 mm | - | 201 W/m² | - |
| 1778099279 | 20° C | 86% | 1008.3 hPa | 0 mm | - | 170 W/m² | - |
| 1778098976 | 20° C | 86% | 1008.6 hPa | 0 mm | - | 182 W/m² | - |
| 1778098673 | 19.44° C | 87% | 1008.6 hPa | 0 mm | - | 246 W/m² | - |
| 1778098369 | 19.44° C | 88% | 1008.7 hPa | 0 mm | - | 177 W/m² | - |
| 1778098067 | 19.44° C | 89% | 1008.8 hPa | 0 mm | - | 132 W/m² | - |
| 1778097763 | 19.44° C | 88% | 1008.7 hPa | 0 mm | - | 103 W/m² | - |
| 1778097459 | 19.44° C | 87% | 1008.8 hPa | 0 mm | - | 145 W/m² | - |
| 1778097156 | 19.44° C | 87% | 1008.9 hPa | 0 mm | - | 146 W/m² | - |
| 1778096853 | 19.44° C | 87% | 1008.9 hPa | 0 mm | - | 168 W/m² | - |
| 1778096550 | 19.44° C | 87% | 1009 hPa | 0 mm | - | 184 W/m² | - |
* Rain latest hour (hover to see other rain measurements)
** Current wind speed in m/s (hover to see current wind gust speed)